WA4BPS Weather Reports


time (UTC)temp
C
wind
direction
speed
KPH
gust
KPH
rain 1hr
cm
rain 24hr
cm
rain mn
cm
humidity
%
barometer
mb
20260506092233 18 258 16.1 38.6 0.00 0.00 0.00 78 1007.3
20260506092131 18 322 20.9 45.1 0.00 0.00 0.00 78 1007.3
20260506092029 18 309 22.5 45.1 0.00 0.00 0.00 78 1007.3
20260506091927 18 308 22.5 45.1 0.00 0.00 0.00 78 1007.3
20260506091826 18 313 19.3 45.1 0.00 0.00 0.00 78 1007.3
20260506091724 18 316 25.7 45.1 0.00 0.00 0.00 78 1007.3
20260506091651 18 309 16.1 45.1 0.00 0.00 0.00 78 1007.3
20260506091533 18 326 16.1 45.1 0.00 0.00 0.00 78 1007.3
20260506091453 18 329 17.7 45.1 0.00 0.00 0.00 78 1007.3
20260506091331 18 306 19.3 45.1 0.00 0.00 0.00 78 1007.2
20260506091229 18 295 29.0 45.1 0.00 0.00 0.00 77 1007.2
20260506091129 18 304 22.5 43.5 0.00 0.00 0.00 77 1007.2
20260506091046 18 312 19.3 43.5 0.00 0.00 0.00 77 1007.2
20260506090943 18 267 19.3 43.5 0.00 0.00 0.00 77 1007.2
20260506090843 18 298 27.4 43.5 0.00 0.00 0.00 77 1007.2
20260506090725 18 281 14.5 41.8 0.00 0.00 0.00 77 1007.2
20260506090643 18 287 12.9 41.8 0.00 0.00 0.00 77 1007.2
20260506090602 18 313 17.7 41.8 0.00 0.00 0.00 77 1007.2
20260506090439 18 281 27.4 41.8 0.00 0.00 0.00 77 1007.2
20260506090337 18 312 24.1 43.5 0.00 0.00 0.00 77 1007.2
20260506090255 18 277 22.5 43.5 0.00 0.00 0.00 77 1007.2
20260506090204 18 322 22.5 43.5 0.00 0.00 0.00 77 1007.2
20260506090041 18 318 20.9 43.5 0.00 0.00 0.00 77 1007.2
20260506085943 18 326 14.5 43.5 0.00 0.00 0.00 77 1007.2
20260506085841 18 311 17.7 43.5 0.00 0.00 0.00 77 1006.8
20260506085800 18 306 16.1 43.5 0.00 0.00 0.00 77 1006.8
20260506085638 18 309 16.1 43.5 0.00 0.00 0.00 77 1006.8
20260506085555 18 298 24.1 43.5 0.00 0.00 0.00 77 1006.8
20260506085433 18 322 29.0 43.5 0.00 0.00 0.00 77 1006.8
20260506085332 18 326 24.1 43.5 0.00 0.00 0.00 77 1006.8
20260506085250 18 325 24.1 43.5 0.00 0.00 0.00 77 1006.8
20260506085131 18 311 22.5 43.5 0.00 0.00 0.00 77 1006.8
20260506085030 18 313 16.1 43.5 0.00 0.00 0.00 77 1006.8
20260506084949 18 319 17.7 43.5 0.00 0.00 0.00 77 1006.8
20260506084827 18 322 25.7 43.5 0.00 0.00 0.00 76 1006.8
20260506084725 18 309 19.3 43.5 0.00 0.00 0.00 76 1006.8
20260506084653 18 253 27.4 43.5 0.00 0.00 0.00 76 1006.8
20260506084530 18 316 30.6 43.5 0.00 0.00 0.00 76 1006.8
20260506084426 18 302 22.5 41.8 0.00 0.00 0.00 76 1006.8
20260506084329 18 282 19.3 41.8 0.00 0.00 0.00 76 1006.9
20260506084246 18 311 24.1 48.3 0.00 0.00 0.00 75 1006.9
20260506084144 18 320 22.5 48.3 0.00 0.00 0.00 75 1006.9
20260506084042 18 318 22.5 48.3 0.00 0.00 0.00 75 1006.9
20260506083940 18 315 24.1 48.3 0.00 0.00 0.00 75 1006.9
20260506083838 18 320 22.5 48.3 0.00 0.00 0.00 75 1006.9
20260506083756 18 325 24.1 48.3 0.00 0.00 0.00 74 1006.9
20260506083633 18 328 27.4 48.3 0.00 0.00 0.00 74 1006.9
20260506083532 18 258 27.4 48.3 0.00 0.00 0.00 74 1006.9
20260506083434 18 281 24.1 48.3 0.00 0.00 0.00 74 1006.9
20260506083331 18 318 27.4 48.3 0.00 0.00 0.00 74 1006.9
20260506083244 18 329 24.1 48.3 0.00 0.00 0.00 74 1006.9
20260506083155 18 305 24.1 48.3 0.00 0.00 0.00 74 1006.9
20260506083032 18 311 20.9 49.9 0.00 0.00 0.00 74 1006.9
20260506082950 18 304 20.9 49.9 0.00 0.00 0.00 74 1006.9
20260506082847 18 302 25.7 49.9 0.00 0.00 0.00 74 1006.9
20260506082744 18 316 30.6 49.9 0.00 0.00 0.00 74 1006.9
20260506082626 18 288 24.1 49.9 0.00 0.00 0.00 74 1006.9
20260506082543 18 280 29.0 49.9 0.00 0.00 0.00 74 1006.9
20260506082502 18 325 20.9 49.9 0.00 0.00 0.00 74 1006.9
20260506082339 18 329 20.9 49.9 0.00 0.00 0.00 74 1006.9
20260506082238 18 323 27.4 49.9 0.00 0.00 0.00 74 1006.9
20260506082136 18 323 29.0 48.3 0.00 0.00 0.00 74 1006.9
20260506082033 18 311 27.4 46.7 0.00 0.00 0.00 74 1006.9
20260506081935 18 320 27.4 46.7 0.00 0.00 0.00 74 1006.9
20260506081834 18 298 30.6 46.7 0.00 0.00 0.00 73 1006.9
20260506081753 18 328 25.7 46.7 0.00 0.00 0.00 73 1006.9
20260506081705 18 291 22.5 43.5 0.00 0.00 0.00 73 1006.9
20260506081542 18 326 35.4 43.5 0.00 0.00 0.00 73 1006.9
20260506081501 18 311 27.4 41.8 0.00 0.00 0.00 73 1006.9
20260506081339 18 244 25.7 45.1 0.00 0.00 0.00 73 1006.7
20260506081237 18 275 25.7 45.1 0.00 0.00 0.00 73 1006.7
20260506081135 19 330 25.7 45.1 0.00 0.00 0.00 73 1006.7
20260506081036 19 313 25.7 45.1 0.00 0.00 0.00 73 1006.7
20260506080954 19 299 24.1 45.1 0.00 0.00 0.00 73 1006.7
20260506080853 19 320 25.7 45.1 0.00 0.00 0.00 73 1006.7
20260506080731 19 304 24.1 45.1 0.00 0.00 0.00 73 1006.7
20260506080649 19 311 27.4 45.1 0.00 0.00 0.00 73 1006.7
20260506080526 19 285 29.0 45.1 0.00 0.00 0.00 73 1006.7
20260506080424 19 319 27.4 45.1 0.00 0.00 0.00 73 1006.7
20260506080342 19 313 33.8 45.1 0.00 0.00 0.00 72 1006.7
20260506080236 19 320 24.1 41.8 0.00 0.00 0.00 72 1006.7
20260506080146 19 299 17.7 45.1 0.00 0.00 0.00 72 1006.7
20260506073438 19 280 24.1 41.8 0.00 0.00 0.00 71 1006.6
20260506073336 19 315 20.9 41.8 0.00 0.00 0.00 71 1006.6
20260506073235 19 318 25.7 45.1 0.00 0.00 0.00 71 1006.6
20260506073205 19 328 22.5 45.1 0.00 0.00 0.00 71 1006.6
20260506073026 19 272 27.4 45.1 0.00 0.00 0.00 71 1006.6
20260506072946 19 305 24.1 45.1 0.00 0.00 0.00 71 1006.6
20260506072904 19 301 22.5 45.1 0.00 0.00 0.00 71 1006.5
20260506072742 19 326 25.7 45.1 0.00 0.00 0.00 71 1006.5
20260506072641 19 323 16.1 45.1 0.00 0.00 0.00 71 1006.5
20260506072540 19 246 20.9 45.1 0.00 0.00 0.00 71 1006.5
20260506072439 19 326 27.4 45.1 0.00 0.00 0.00 71 1006.5
20260506072341 19 295 27.4 43.5 0.00 0.00 0.00 71 1006.5
20260506072241 19 292 30.6 45.1 0.00 0.00 0.00 71 1006.5
20260506072139 19 258 30.6 45.1 0.00 0.00 0.00 71 1006.5
20260506072037 19 285 27.4 45.1 0.00 0.00 0.00 71 1006.5
20260506071936 19 316 20.9 45.1 0.00 0.00 0.00 71 1006.5
20260506071834 19 305 24.1 45.1 0.00 0.00 0.00 71 1006.5
20260506071732 19 272 19.3 45.1 0.00 0.00 0.00 70 1006.5
20260506071706 19 298 22.5 45.1 0.00 0.00 0.00 70 1006.5
20260506071604 19 265 24.1 45.1 0.00 0.00 0.00 70 1006.5
20260506071441 19 239 24.1 45.1 0.00 0.00 0.00 70 1006.5
20260506071339 19 323 30.6 45.1 0.00 0.00 0.00 70 1006.4
20260506071241 19 288 25.7 38.6 0.00 0.00 0.00 70 1006.4
20260506071158 19 289 17.7 40.2 0.00 0.00 0.00 70 1006.4
20260506071055 19 274 14.5 43.5 0.00 0.00 0.00 70 1006.4
20260506070932 19 258 20.9 43.5 0.00 0.00 0.00 70 1006.4
20260506070831 19 326 20.9 43.5 0.00 0.00 0.00 70 1006.4
20260506070734 19 298 19.3 43.5 0.00 0.00 0.00 70 1006.4
20260506070634 19 323 20.9 43.5 0.00 0.00 0.00 70 1006.4
20260506070532 19 318 20.9 49.9 0.00 0.00 0.00 70 1006.4
20260506070430 19 312 17.7 49.9 0.00 0.00 0.00 70 1006.4
20260506070328 19 287 17.7 49.9 0.00 0.00 0.00 70 1006.4
20260506070238 19 320 30.6 49.9 0.00 0.00 0.00 70 1006.4
20260506070148 19 282 22.5 49.9 0.00 0.00 0.00 70 1006.4
20260506062443 19 308 20.9 51.5 0.00 0.00 0.00 67 1007.0
20260506062401 19 302 25.7 51.5 0.00 0.00 0.00 67 1007.0
20260506062259 19 304 27.4 51.5 0.00 0.00 0.00 67 1007.0
20260506062136 19 329 27.4 51.5 0.00 0.00 0.00 67 1007.0
20260506062034 19 308 24.1 51.5 0.00 0.00 0.00 67 1007.0
20260506061932 19 316 29.0 51.5 0.00 0.00 0.00 66 1007.0
20260506061835 19 287 27.4 51.5 0.00 0.00 0.00 66 1007.0
20260506061805 19 305 27.4 51.5 0.00 0.00 0.00 66 1007.0
20260506061653 19 250 25.7 51.5 0.00 0.00 0.00 66 1007.0
20260506061531 19 312 25.7 51.5 0.00 0.00 0.00 66 1007.0
20260506061428 19 274 22.5 51.5 0.00 0.00 0.00 66 1007.0
20260506061327 19 316 27.4 51.5 0.00 0.00 0.00 66 1007.0
20260506061226 19 271 25.7 51.5 0.00 0.00 0.00 66 1007.0
20260506061129 19 315 14.5 51.5 0.00 0.00 0.00 66 1007.0
20260506061047 19 291 20.9 51.5 0.00 0.00 0.00 66 1007.0
20260506060924 19 318 24.1 51.5 0.00 0.00 0.00 66 1007.0
20260506060842 19 271 22.5 51.5 0.00 0.00 0.00 66 1007.0
20260506060801 19 254 25.7 51.5 0.00 0.00 0.00 66 1007.0
20260506060639 19 299 16.1 48.3 0.00 0.00 0.00 66 1007.0
20260506060537 19 311 22.5 48.3 0.00 0.00 0.00 66 1007.0
20260506060435 19 296 22.5 48.3 0.00 0.00 0.00 66 1007.0
20260506060333 19 330 27.4 48.3 0.00 0.00 0.00 66 1007.0
20260506060257 19 244 24.1 41.8 0.00 0.00 0.00 66 1007.0
20260506060205 19 320 22.5 41.8 0.00 0.00 0.00 66 1007.0
20260506051400 20 299 14.5 43.5 0.00 0.00 0.00 63 1007.9
20260506051300 20 291 14.5 43.5 0.00 0.00 0.00 63 1007.9
20260506051137 20 284 24.1 43.5 0.00 0.00 0.00 63 1007.9
20260506051034 20 291 30.6 43.5 0.00 0.00 0.00 63 1007.9
20260506050933 20 287 27.4 43.5 0.00 0.00 0.00 63 1007.9
20260506050831 20 272 25.7 40.2 0.00 0.00 0.00 63 1007.9
20260506050733 20 322 20.9 40.2 0.00 0.00 0.00 63 1007.9
20260506050631 20 305 22.5 40.2 0.00 0.00 0.00 63 1007.9
20260506050529 20 326 20.9 48.3 0.00 0.00 0.00 63 1007.9
20260506050428 20 230 22.5 48.3 0.00 0.00 0.00 63 1007.9
20260506050325 20 280 19.3 48.3 0.00 0.00 0.00 63 1007.9
20260506050243 20 288 22.5 48.3 0.00 0.00 0.00 63 1007.9
20260506050214 20 272 27.4 48.3 0.00 0.00 0.00 63 1007.9
20260506045135 20 220 22.5 43.5 0.00 0.00 0.00 62 1007.7
20260506045037 20 306 17.7 43.5 0.00 0.00 0.00 63 1007.7
20260506044955 20 236 20.9 43.5 0.00 0.00 0.00 63 1007.7
20260506044832 20 263 24.1 43.5 0.00 0.00 0.00 63 1007.7
20260506044751 20 271 24.1 43.5 0.00 0.00 0.00 62 1007.7
20260506044720 20 251 17.7 45.1 0.00 0.00 0.00 62 1007.7
20260506044537 20 328 20.9 45.1 0.00 0.00 0.00 62 1007.7
20260506044456 20 312 22.5 45.1 0.00 0.00 0.00 62 1007.7
20260506044333 20 309 27.4 45.1 0.00 0.00 0.00 62 1007.8
20260506044232 20 264 22.5 45.1 0.00 0.00 0.00 62 1007.8
20260506044135 20 299 27.4 45.1 0.00 0.00 0.00 62 1007.8
20260506044033 20 256 19.3 45.1 0.00 0.00 0.00 62 1007.8
20260506043932 20 282 20.9 45.1 0.00 0.00 0.00 62 1007.8
20260506043832 20 325 33.8 45.1 0.00 0.00 0.00 62 1007.8
20260506043730 20 239 29.0 45.1 0.00 0.00 0.00 62 1007.8
20260506043628 20 282 25.7 45.1 0.00 0.00 0.00 62 1007.8
20260506043531 20 294 22.5 45.1 0.00 0.00 0.00 62 1007.8
20260506043429 20 237 20.9 45.1 0.00 0.00 0.00 62 1007.8
20260506043329 20 315 27.4 45.1 0.00 0.00 0.00 62 1007.8
20260506043231 20 264 32.2 45.1 0.00 0.00 0.00 62 1007.8
20260506043201 20 309 24.1 43.5 0.00 0.00 0.00 62 1007.8
20260506043037 20 301 22.5 43.5 0.00 0.00 0.00 62 1007.8
20260506042935 20 217 25.7 43.5 0.00 0.00 0.00 62 1007.8
20260506042838 20 280 20.9 43.5 0.00 0.00 0.00 62 1007.8
20260506042737 20 315 22.5 43.5 0.00 0.00 0.00 62 1007.8
20260506042636 20 277 24.1 43.5 0.00 0.00 0.00 62 1007.8
20260506042536 20 305 20.9 43.5 0.00 0.00 0.00 62 1007.8
20260506042434 20 240 16.1 41.8 0.00 0.00 0.00 62 1007.8
20260506042332 20 319 33.8 41.8 0.00 0.00 0.00 62 1007.8
20260506042230 20 247 33.8 41.8 0.00 0.00 0.00 62 1007.8
20260506042149 20 302 20.9 41.8 0.00 0.00 0.00 62 1007.8
20260506042031 20 315 16.1 41.8 0.00 0.00 0.00 62 1007.8
20260506041950 20 239 27.4 41.8 0.00 0.00 0.00 62 1007.8
20260506041827 20 301 16.1 41.8 0.00 0.00 0.00 62 1007.8
20260506041736 20 329 22.5 41.8 0.00 0.00 0.00 62 1007.8
20260506041646 20 280 16.1 38.6 0.00 0.00 0.00 62 1007.8
20260506041524 20 271 14.5 41.8 0.00 0.00 0.00 62 1007.8
20260506041442 20 236 20.9 41.8 0.00 0.00 0.00 62 1007.8
20260506041325 20 292 14.5 41.8 0.00 0.00 0.00 62 1008.0
20260506041243 20 264 16.1 41.8 0.00 0.00 0.00 62 1008.0
20260506041142 20 285 17.7 49.9 0.00 0.00 0.00 62 1008.0
20260506041102 20 257 20.9 49.9 0.00 0.00 0.00 62 1008.0
20260506040938 20 299 22.5 49.9 0.00 0.00 0.00 62 1008.0
20260506040838 20 281 22.5 49.9 0.00 0.00 0.00 62 1008.0
20260506040736 20 319 22.5 49.9 0.00 0.00 0.00 62 1008.0
20260506040634 20 270 25.7 49.9 0.00 0.00 0.00 62 1008.0
20260506040536 20 291 17.7 49.9 0.00 0.00 0.00 62 1008.0
20260506040455 20 256 22.5 49.9 0.00 0.00 0.00 62 1008.0
20260506040332 20 271 30.6 49.9 0.00 0.00 0.00 62 1008.0
20260506040231 20 305 22.5 45.1 0.00 0.00 0.00 62 1008.0
20260506040201 20 234 17.7 45.1 0.00 0.00 0.00 62 1008.0
20260506040057 20 272 22.5 45.1 0.00 0.00 0.00 62 1008.0
20260506035934 20 258 22.5 45.1 0.00 0.00 0.00 62 1008.0
20260506035832 20 306 22.5 45.1 0.00 0.00 0.00 62 1007.9
20260506035734 20 267 20.9 45.1 0.00 0.00 0.00 62 1007.9
20260506035531 20 292 27.4 45.1 0.00 0.00 0.00 62 1007.9
20260506035428 20 261 22.5 43.5 0.00 0.00 0.00 62 1007.9
20260506035351 20 329 25.7 43.5 0.00 0.00 0.00 62 1007.9
20260506035227 20 312 29.0 43.5 0.00 0.00 0.00 62 1007.9
20260506035126 20 264 17.7 35.4 0.00 0.00 0.00 62 1007.9
20260506035031 20 234 14.5 38.6 0.00 0.00 0.00 62 1007.9
20260506034931 20 233 17.7 43.5 0.00 0.00 0.00 62 1007.9
20260506034828 20 308 20.9 43.5 0.00 0.00 0.00 62 1007.9
20260506034739 20 257 29.0 43.5 0.00 0.00 0.00 62 1007.9
20260506034647 20 315 17.7 45.1 0.00 0.00 0.00 62 1007.9
20260506034524 20 302 20.9 45.1 0.00 0.00 0.00 62 1007.9
20260506034442 20 272 14.5 45.1 0.00 0.00 0.00 62 1007.9
20260506034401 20 219 20.9 45.1 0.00 0.00 0.00 62 1007.9
20260506034244 20 243 24.1 45.1 0.00 0.00 0.00 62 1007.9
20260506034203 20 316 29.0 45.1 0.00 0.00 0.00 63 1007.9
20260506034041 20 284 29.0 45.1 0.00 0.00 0.00 63 1007.9
20260506033939 20 216 25.7 45.1 0.00 0.00 0.00 63 1007.9
20260506033838 20 271 27.4 45.1 0.00 0.00 0.00 63 1007.9
20260506033736 20 291 24.1 45.1 0.00 0.00 0.00 63 1007.9
20260506033635 20 329 19.3 45.1 0.00 0.00 0.00 63 1007.9
20260506033532 20 251 16.1 45.1 0.00 0.00 0.00 63 1007.9
20260506033435 20 246 17.7 45.1 0.00 0.00 0.00 63 1007.9
20260506033333 20 233 25.7 45.1 0.00 0.00 0.00 63 1007.9
20260506033232 20 274 25.7 41.8 0.00 0.00 0.00 63 1007.9
20260506033204 20 240 22.5 41.8 0.00 0.00 0.00 63 1007.9
20260506033042 20 260 25.7 41.8 0.00 0.00 0.00 63 1007.9
20260506032940 20 306 22.5 41.8 0.00 0.00 0.00 63 1007.9
20260506032839 20 247 12.9 41.8 0.00 0.00 0.00 63 1007.9
20260506032800 20 243 14.5 41.8 0.00 0.00 0.00 63 1007.9
20260506032637 20 275 19.3 41.8 0.00 0.00 0.00 63 1007.9
20260506032536 20 233 25.7 41.8 0.00 0.00 0.00 63 1007.9
20260506032435 20 223 22.5 38.6 0.00 0.00 0.00 63 1007.9
20260506032335 20 278 20.9 38.6 0.00 0.00 0.00 63 1007.9
20260506032233 20 278 19.3 38.6 0.00 0.00 0.00 63 1007.9
20260506032131 20 213 22.5 38.6 0.00 0.00 0.00 63 1007.9
20260506032058 20 250 22.5 38.6 0.00 0.00 0.00 63 1007.9
20260506031936 20 193 16.1 32.2 0.00 0.00 0.00 63 1007.9
20260506031834 20 232 19.3 32.2 0.00 0.00 0.00 63 1007.9
20260506031743 20 196 17.7 32.2 0.00 0.00 0.00 63 1007.9
20260506031652 20 288 20.9 32.2 0.00 0.00 0.00 63 1007.9
20260506031548 20 275 19.3 32.2 0.00 0.00 0.00 63 1007.9
20260506031425 20 191 16.1 38.6 0.00 0.00 0.00 63 1007.9
20260506031325 20 268 17.7 38.6 0.00 0.00 0.00 63 1008.3
20260506031228 20 191 14.5 38.6 0.00 0.00 0.00 64 1008.3
20260506031126 20 285 20.9 38.6 0.00 0.00 0.00 64 1008.3
20260506031043 20 247 24.1 38.6 0.00 0.00 0.00 64 1008.3
20260506031001 20 257 17.7 38.6 0.00 0.00 0.00 64 1008.3
20260506030839 20 268 16.1 38.6 0.00 0.00 0.00 64 1008.3
20260506030737 20 299 17.7 38.6 0.00 0.00 0.00 64 1008.3
20260506030636 20 326 19.3 38.6 0.00 0.00 0.00 64 1008.3
20260506030539 20 239 14.5 35.4 0.00 0.00 0.00 64 1008.3
20260506030437 20 236 17.7 35.4 0.00 0.00 0.00 64 1008.3
20260506030336 20 233 16.1 35.4 0.00 0.00 0.00 64 1008.3
20260506030234 20 210 17.7 35.4 0.00 0.00 0.00 63 1008.3
20260506030204 20 205 19.3 40.2 0.00 0.00 0.00 64 1008.3
20260506030040 20 254 17.7 40.2 0.00 0.00 0.00 64 1008.3
20260506025939 20 215 20.9 40.2 0.00 0.00 0.00 64 1008.3
20260506025838 19 296 12.9 40.2 0.00 0.00 0.00 64 1008.2
20260506025739 19 267 20.9 40.2 0.00 0.00 0.00 64 1008.2
20260506025637 19 241 19.3 40.2 0.00 0.00 0.00 64 1008.2
20260506025555 19 260 22.5 40.2 0.00 0.00 0.00 64 1008.2
20260506025432 19 274 14.5 40.2 0.00 0.00 0.00 64 1008.2
20260506025330 19 295 19.3 40.2 0.00 0.00 0.00 64 1008.2
20260506025228 19 260 16.1 40.2 0.00 0.00 0.00 64 1008.2
20260506025146 19 209 20.9 40.2 0.00 0.00 0.00 64 1008.2
20260506025043 19 284 22.5 40.2 0.00 0.00 0.00 64 1008.2
20260506024926 19 222 19.3 40.2 0.00 0.00 0.00 64 1008.2
20260506024823 19 215 17.7 33.8 0.00 0.00 0.00 64 1008.2
20260506024726 19 265 12.9 29.0 0.00 0.00 0.00 64 1008.2
20260506024659 19 230 11.3 40.2 0.00 0.00 0.00 64 1008.2
20260506024536 19 311 12.9 40.2 0.00 0.00 0.00 64 1008.2
20260506024436 19 257 14.5 40.2 0.00 0.00 0.00 64 1008.2
20260506024335 19 232 12.9 40.2 0.00 0.00 0.00 64 1008.2
20260506024236 19 236 17.7 40.2 0.00 0.00 0.00 64 1008.2
20260506024134 19 287 17.7 40.2 0.00 0.00 0.00 64 1008.2
20260506024034 19 230 17.7 40.2 0.00 0.00 0.00 64 1008.2
20260506023934 19 208 17.7 40.2 0.00 0.00 0.00 64 1008.2
20260506023835 19 275 19.3 40.2 0.00 0.00 0.00 64 1008.2
20260506023732 19 222 17.7 35.4 0.00 0.00 0.00 64 1008.2
20260506023631 19 239 22.5 35.4 0.00 0.00 0.00 64 1008.2
20260506023534 19 241 11.3 32.2 0.00 0.00 0.00 64 1008.2
20260506023433 19 288 16.1 32.2 0.00 0.00 0.00 64 1008.2
20260506023332 19 258 12.9 38.6 0.00 0.00 0.00 64 1008.2
20260506023230 19 247 14.5 38.6 0.00 0.00 0.00 64 1008.2
20260506023202 19 209 12.9 38.6 0.00 0.00 0.00 64 1008.2
20260506023038 19 264 12.9 38.6 0.00 0.00 0.00 64 1008.2
20260506022936 19 284 14.5 38.6 0.00 0.00 0.00 64 1008.2
20260506022838 19 287 19.3 38.6 0.00 0.00 0.00 64 1007.8
20260506022736 20 254 9.7 38.6 0.00 0.00 0.00 64 1007.8
20260506022634 20 251 16.1 38.6 0.00 0.00 0.00 64 1007.8
20260506022532 20 208 16.1 38.6 0.00 0.00 0.00 64 1007.8
20260506022432 20 202 12.9 32.2 0.00 0.00 0.00 64 1007.8
20260506022330 20 267 17.7 32.2 0.00 0.00 0.00 64 1007.8
20260506022250 20 278 16.1 32.2 0.00 0.00 0.00 64 1007.8
20260506022130 20 272 9.7 30.6 0.00 0.00 0.00 64 1007.8
20260506022029 20 244 14.5 30.6 0.00 0.00 0.00 64 1007.8
20260506021928 20 247 17.7 30.6 0.00 0.00 0.00 64 1007.8
20260506021827 20 195 12.9 30.6 0.00 0.00 0.00 64 1007.8
20260506021725 20 271 11.3 30.6 0.00 0.00 0.00 64 1007.8
20260506021655 20 198 12.9 35.4 0.00 0.00 0.00 64 1007.8
20260506021553 20 236 12.9 35.4 0.00 0.00 0.00 64 1007.8
20260506021430 20 244 19.3 43.5 0.00 0.00 0.00 64 1007.8
20260506021333 20 239 17.7 43.5 0.00 0.00 0.00 64 1007.0
20260506021230 20 277 17.7 43.5 0.00 0.00 0.00 64 1007.0
20260506021129 20 222 12.9 43.5 0.00 0.00 0.00 64 1007.0
20260506021047 20 178 16.1 43.5 0.00 0.00 0.00 63 1007.0
20260506020924 20 224 17.7 43.5 0.00 0.00 0.00 63 1007.0
20260506020843 20 258 20.9 43.5 0.00 0.00 0.00 63 1007.0
20260506020743 20 202 20.9 43.5 0.00 0.00 0.00 63 1007.0
20260506020624 20 253 17.7 43.5 0.00 0.00 0.00 63 1007.0
20260506020542 20 268 20.9 43.5 0.00 0.00 0.00 63 1007.0
20260506020441 20 233 20.9 35.4 0.00 0.00 0.00 63 1007.0
20260506020403 20 248 17.7 35.4 0.00 0.00 0.00 63 1007.0
20260506020300 20 202 14.5 35.4 0.00 0.00 0.00 63 1007.0
20260506020209 20 220 17.7 35.4 0.00 0.00 0.00 63 1007.0
20260506020024 20 206 19.3 35.4 0.00 0.00 0.00 63 1007.0
20260506015943 20 258 17.7 35.4 0.00 0.00 0.00 63 1007.0
20260506015841 20 250 20.9 35.4 0.00 0.00 0.00 63 1007.4
20260506015724 20 240 20.9 35.4 0.00 0.00 0.00 63 1007.4
20260506015643 20 234 14.5 29.0 0.00 0.00 0.00 63 1007.4
20260506015540 20 234 11.3 30.6 0.00 0.00 0.00 63 1007.4
20260506015438 20 199 9.7 30.6 0.00 0.00 0.00 63 1007.4
20260506015336 20 239 14.5 32.2 0.00 0.00 0.00 63 1007.4
20260506015235 20 227 17.7 32.2 0.00 0.00 0.00 63 1007.4
20260506015153 20 254 11.3 32.2 0.00 0.00 0.00 63 1007.4
20260506015034 20 199 11.3 43.5 0.00 0.00 0.00 63 1007.4
20260506014953 20 274 16.1 43.5 0.00 0.00 0.00 63 1007.4
20260506014829 20 261 22.5 43.5 0.00 0.00 0.00 63 1007.4
20260506014740 20 308 16.1 43.5 0.00 0.00 0.00 63 1007.4
20260506014648 20 263 19.3 43.5 0.00 0.00 0.00 63 1007.4
20260506014526 20 215 22.5 43.5 0.00 0.00 0.00 63 1007.4
20260506014424 20 175 22.5 43.5 0.00 0.00 0.00 63 1007.4
20260506014324 20 272 12.9 43.5 0.00 0.00 0.00 63 1007.1
20260506014226 20 247 24.1 43.5 0.00 0.00 0.00 63 1007.1
20260506014125 20 277 14.5 35.4 0.00 0.00 0.00 63 1007.1
20260506014024 20 271 20.9 35.4 0.00 0.00 0.00 63 1007.1
20260506013942 20 289 22.5 35.4 0.00 0.00 0.00 63 1007.1
20260506013841 20 243 17.7 35.4 0.00 0.00 0.00 63 1007.1
20260506013739 20 258 9.7 35.4 0.00 0.00 0.00 63 1007.1
20260506013637 20 251 12.9 35.4 0.00 0.00 0.00 63 1007.1
20260506013556 20 302 12.9 35.4 0.00 0.00 0.00 63 1007.1
20260506013437 20 272 19.3 35.4 0.00 0.00 0.00 63 1007.1
20260506013357 20 309 22.5 43.5 0.00 0.00 0.00 63 1007.1
20260506013315 20 205 22.5 43.5 0.00 0.00 0.00 63 1007.1
20260506013204 20 241 22.5 43.5 0.00 0.00 0.00 63 1007.1
20260506013041 20 241 12.9 43.5 0.00 0.00 0.00 63 1007.1
20260506012940 20 223 16.1 43.5 0.00 0.00 0.00 62 1007.1
20260506012839 20 241 14.5 43.5 0.00 0.00 0.00 62 1007.0
20260506012737 20 209 16.1 43.5 0.00 0.00 0.00 63 1007.0
20260506012640 20 200 16.1 43.5 0.00 0.00 0.00 62 1007.0
20260506012538 20 210 19.3 43.5 0.00 0.00 0.00 62 1007.0
20260506012438 20 192 22.5 43.5 0.00 0.00 0.00 62 1007.0
20260506012335 20 267 17.7 32.2 0.00 0.00 0.00 62 1007.0
20260506012234 20 216 17.7 32.2 0.00 0.00 0.00 62 1007.0
20260506012133 20 192 19.3 32.2 0.00 0.00 0.00 62 1007.0
20260506012036 20 212 16.1 32.2 0.00 0.00 0.00 62 1007.0
20260506011933 20 176 11.3 32.2 0.00 0.00 0.00 62 1007.0
20260506011835 20 176 9.7 32.2 0.00 0.00 0.00 62 1007.0
20260506011744 20 195 19.3 32.2 0.00 0.00 0.00 63 1007.0
20260506011653 20 248 16.1 38.6 0.00 0.00 0.00 62 1007.0
20260506011531 20 192 19.3 38.6 0.00 0.00 0.00 62 1007.0
20260506011429 20 265 12.9 38.6 0.00 0.00 0.00 62 1007.0
20260506011327 20 239 16.1 38.6 0.00 0.00 0.00 62 1007.2
20260506011249 20 236 16.1 38.6 0.00 0.00 0.00 62 1007.2
20260506011127 20 260 14.5 38.6 0.00 0.00 0.00 62 1007.2
20260506011046 20 227 17.7 38.6 0.00 0.00 0.00 62 1007.2
20260506010943 20 277 14.5 38.6 0.00 0.00 0.00 62 1007.2
20260506010902 20 251 20.9 38.6 0.00 0.00 0.00 62 1007.2
20260506010758 20 275 20.9 38.6 0.00 0.00 0.00 62 1007.2
20260506010634 20 258 19.3 33.8 0.00 0.00 0.00 62 1007.2
20260506010532 20 232 19.3 33.8 0.00 0.00 0.00 62 1007.2
20260506010431 20 206 17.7 33.8 0.00 0.00 0.00 62 1007.2
20260506010334 20 237 9.7 33.8 0.00 0.00 0.00 62 1007.2
20260506010252 20 222 12.9 33.8 0.00 0.00 0.00 62 1007.2
20260506010203 20 254 14.5 33.8 0.00 0.00 0.00 62 1007.2
20260506010100 20 302 16.1 33.8 0.00 0.00 0.00 62 1007.2
20260506005938 20 285 14.5 33.8 0.00 0.00 0.00 62 1007.2
20260506005836 20 292 19.3 33.8 0.00 0.00 0.00 62 1007.1
20260506005735 20 246 20.9 33.8 0.00 0.00 0.00 62 1007.1
20260506005634 20 241 12.9 32.2 0.00 0.00 0.00 62 1007.1
20260506005536 20 256 14.5 32.2 0.00 0.00 0.00 62 1007.1
20260506005434 20 248 19.3 32.2 0.00 0.00 0.00 62 1007.1
20260506005334 20 247 14.5 32.2 0.00 0.00 0.00 62 1007.1
20260506005233 20 224 12.9 32.2 0.00 0.00 0.00 62 1007.1
20260506005132 20 208 17.7 32.2 0.00 0.00 0.00 61 1007.1
20260506005029 20 234 16.1 32.2 0.00 0.00 0.00 61 1007.1
20260506004928 20 192 17.7 32.2 0.00 0.00 0.00 61 1007.1
20260506004831 20 202 22.5 32.2 0.00 0.00 0.00 61 1007.1
20260506004732 20 217 19.3 30.6 0.00 0.00 0.00 61 1007.1
20260506004701 20 264 16.1 30.6 0.00 0.00 0.00 61 1007.1
20260506004538 20 215 19.3 30.6 0.00 0.00 0.00 61 1007.1
20260506004436 20 199 17.7 30.6 0.00 0.00 0.00 61 1007.1
20260506004335 20 213 16.1 30.6 0.00 0.00 0.00 61 1007.2
20260506004253 20 265 17.7 30.6 0.00 0.00 0.00 61 1007.2
20260506004135 20 233 17.7 30.6 0.00 0.00 0.00 61 1007.2
20260506004034 20 196 11.3 30.6 0.00 0.00 0.00 61 1007.2
20260506003953 20 208 16.1 35.4 0.00 0.00 0.00 61 1007.2
20260506003829 20 220 14.5 35.4 0.00 0.00 0.00 61 1007.2
20260506003728 20 247 16.1 35.4 0.00 0.00 0.00 60 1007.2
20260506003627 20 210 17.7 35.4 0.00 0.00 0.00 61 1007.2
20260506003546 20 202 12.9 35.4 0.00 0.00 0.00 61 1007.2
20260506003445 20 202 16.1 35.4 0.00 0.00 0.00 61 1007.2
20260506003403 20 193 17.7 35.4 0.00 0.00 0.00 61 1007.2
20260506003235 20 265 9.7 35.4 0.00 0.00 0.00 61 1007.2
20260506003147 20 219 20.9 35.4 0.00 0.00 0.00 61 1007.2
20260506003024 20 260 11.3 33.8 0.00 0.00 0.00 60 1007.2
20260506002943 20 213 12.9 33.8 0.00 0.00 0.00 61 1007.2
20260506002901 20 215 16.1 38.6 0.00 0.00 0.00 60 1007.1
20260506002738 20 227 11.3 38.6 0.00 0.00 0.00 61 1007.1
20260506002636 20 200 12.9 38.6 0.00 0.00 0.00 60 1007.1
20260506002535 20 272 12.9 38.6 0.00 0.00 0.00 60 1007.1
20260506002438 20 216 19.3 38.6 0.00 0.00 0.00 60 1007.1
20260506002337 20 227 16.1 38.6 0.00 0.00 0.00 60 1007.1
20260506002235 20 243 12.9 38.6 0.00 0.00 0.00 60 1007.1
20260506002134 20 223 14.5 38.6 0.00 0.00 0.00 60 1007.1
20260506002033 20 203 22.5 38.6 0.00 0.00 0.00 60 1007.1
20260506001932 20 232 19.3 32.2 0.00 0.00 0.00 60 1007.1
20260506001834 20 222 22.5 32.2 0.00 0.00 0.00 60 1007.1
20260506001732 20 256 17.7 29.0 0.00 0.00 0.00 60 1007.1
20260506001701 20 220 17.7 29.0 0.00 0.00 0.00 60 1007.1
20260506001538 20 243 12.9 43.5 0.00 0.00 0.00 60 1007.1
20260506001458 20 223 11.3 43.5 0.00 0.00 0.00 59 1007.1
20260506001335 20 212 11.3 43.5 0.00 0.00 0.00 59 1007.1
20260506001233 20 263 17.7 43.5 0.00 0.00 0.00 59 1007.1
20260506001132 20 216 17.7 43.5 0.00 0.00 0.00 59 1007.1
20260506001051 20 224 11.3 43.5 0.00 0.00 0.00 59 1007.1
20260506000952 20 184 14.5 43.5 0.00 0.00 0.00 59 1007.1
20260506000830 20 193 19.3 43.5 0.00 0.00 0.00 59 1007.1
20260506000748 20 199 27.4 43.5 0.00 0.00 0.00 59 1007.1
20260506000631 20 240 14.5 33.8 0.00 0.00 0.00 59 1007.1
20260506000529 20 247 16.1 33.8 0.00 0.00 0.00 59 1007.1
20260506000431 20 248 19.3 33.8 0.00 0.00 0.00 59 1007.1
20260506000326 20 234 24.1 33.8 0.00 0.00 0.00 59 1007.1
20260506000240 20 261 19.3 33.8 0.00 0.00 0.00 59 1007.1
20260506000149 20 226 14.5 30.6 0.00 0.00 0.00 59 1007.1
20260506000046 20 208 14.5 38.6 0.00 0.00 0.00 59 1007.1
20260506000004 20 295 14.5 38.6 0.00 0.00 0.00 59 1007.1
20260505235902 20 181 16.1 38.6 0.00 0.00 0.00 59 1007.3
20260505235738 20 188 16.1 38.6 0.00 0.00 0.00 59 1007.3
20260505235636 20 281 16.1 38.6 0.00 0.00 0.00 59 1007.3
20260505235533 20 247 19.3 38.6 0.00 0.00 0.00 59 1007.3
20260505235433 20 275 16.1 38.6 0.00 0.00 0.00 59 1007.3
20260505235339 20 264 14.5 38.6 0.00 0.00 0.00 59 1007.3
20260505235238 20 256 20.9 38.6 0.00 0.00 0.00 59 1007.3
20260505235136 20 216 12.9 30.6 0.00 0.00 0.00 59 1007.3
20260505235034 20 230 14.5 30.6 0.00 0.00 0.00 59 1007.3
20260505234933 20 270 14.5 30.6 0.00 0.00 0.00 59 1007.3
20260505234831 20 268 9.7 24.1 0.00 0.00 0.00 59 1007.3
20260505234802 20 226 9.7 24.1 0.00 0.00 0.00 59 1007.3
20260505234650 20 222 9.7 24.1 0.00 0.00 0.00 59 1007.3
20260505234532 20 224 12.9 24.1 0.00 0.00 0.00 59 1007.3
20260505234430 20 247 8.0 25.7 0.00 0.00 0.00 59 1007.3
20260505234330 20 326 11.3 25.7 0.00 0.00 0.00 59 1007.7
20260505234248 20 160 14.5 25.7 0.00 0.00 0.00 58 1007.7
20260505234146 20 240 14.5 29.0 0.00 0.00 0.00 59 1007.7
20260505234104 20 281 12.9 29.0 0.00 0.00 0.00 58 1007.7
20260505233942 20 216 9.7 32.2 0.00 0.00 0.00 59 1007.7
20260505233900 20 243 9.7 32.2 0.00 0.00 0.00 59 1007.7
20260505233735 20 164 14.5 32.2 0.00 0.00 0.00 59 1007.7
20260505233638 20 217 14.5 32.2 0.00 0.00 0.00 59 1007.7
20260505233556 20 257 14.5 32.2 0.00 0.00 0.00 59 1007.7
20260505233433 20 248 14.5 32.2 0.00 0.00 0.00 59 1007.7
20260505233352 21 209 16.1 32.2 0.00 0.00 0.00 58 1007.7
20260505233229 21 281 19.3 32.2 0.00 0.00 0.00 59 1007.7
20260505233201 21 295 17.7 32.2 0.00 0.00 0.00 59 1007.7
20260505233038 21 284 12.9 30.6 0.00 0.00 0.00 59 1007.7
20260505232936 21 265 11.3 30.6 0.00 0.00 0.00 59 1007.7
20260505232842 21 227 11.3 30.6 0.00 0.00 0.00 59 1008.0
20260505232740 21 298 14.5 30.6 0.00 0.00 0.00 58 1008.0
20260505232638 21 261 12.9 30.6 0.00 0.00 0.00 58 1008.0
20260505232536 21 224 12.9 30.6 0.00 0.00 0.00 58 1008.0
20260505232436 21 258 16.1 30.6 0.00 0.00 0.00 58 1008.0
20260505232334 21 315 16.1 30.6 0.00 0.00 0.00 58 1008.0
20260505232232 21 274 14.5 27.4 0.00 0.00 0.00 58 1008.0
20260505232134 21 263 16.1 40.2 0.00 0.00 0.00 58 1008.0
20260505232033 21 281 14.5 40.2 0.00 0.00 0.00 58 1008.0
20260505231932 21 271 11.3 41.8 0.00 0.00 0.00 58 1008.0
20260505231830 21 301 14.5 41.8 0.00 0.00 0.00 58 1008.0
20260505231729 21 239 12.9 41.8 0.00 0.00 0.00 57 1008.0
20260505231658 21 233 16.1 41.8 0.00 0.00 0.00 57 1008.0
20260505231535 21 208 12.9 41.8 0.00 0.00 0.00 58 1008.0
20260505231458 21 248 12.9 41.8 0.00 0.00 0.00 57 1008.0
20260505231336 21 199 17.7 41.8 0.00 0.00 0.00 58 1007.8
20260505231239 21 244 19.3 41.8 0.00 0.00 0.00 58 1007.8
20260505231136 21 318 17.7 41.8 0.00 0.00 0.00 58 1007.8
20260505231034 21 250 16.1 41.8 0.00 0.00 0.00 57 1007.8
20260505230932 21 302 11.3 32.2 0.00 0.00 0.00 57 1007.8
20260505230830 21 233 12.9 32.2 0.00 0.00 0.00 58 1007.8
20260505230733 21 254 12.9 32.2 0.00 0.00 0.00 57 1007.8
20260505230631 21 230 9.7 32.2 0.00 0.00 0.00 57 1007.8
20260505230550 21 277 16.1 32.2 0.00 0.00 0.00 57 1007.8
20260505230427 21 202 8.0 30.6 0.00 0.00 0.00 57 1007.8
20260505230325 21 233 9.7 30.6 0.00 0.00 0.00 57 1007.8
20260505230235 21 185 12.9 30.6 0.00 0.00 0.00 57 1007.8
20260505230145 21 186 9.7 32.2 0.00 0.00 0.00 57 1007.8
20260505230027 21 233 11.3 32.2 0.00 0.00 0.00 57 1007.8
20260505225928 21 260 14.5 32.2 0.00 0.00 0.00 57 1007.8
20260505225846 21 237 14.5 32.2 0.00 0.00 0.00 57 1008.1
20260505225743 21 250 11.3 32.2 0.00 0.00 0.00 57 1008.1
20260505225642 21 270 16.1 32.2 0.00 0.00 0.00 57 1008.1
20260505225541 21 298 16.1 32.2 0.00 0.00 0.00 56 1008.1
20260505225439 21 206 17.7 32.2 0.00 0.00 0.00 57 1008.1
20260505225338 21 282 14.5 32.2 0.00 0.00 0.00 56 1008.1
20260505225241 21 215 16.1 32.2 0.00 0.00 0.00 57 1008.1
20260505225138 21 270 16.1 32.2 0.00 0.00 0.00 56 1008.1
20260505225056 21 227 12.9 32.2 0.00 0.00 0.00 56 1008.1
20260505224934 21 196 9.7 32.2 0.00 0.00 0.00 56 1008.1
20260505224852 21 240 12.9 32.2 0.00 0.00 0.00 56 1008.1
20260505224750 21 294 9.7 32.2 0.00 0.00 0.00 56 1008.1
20260505224719 21 239 16.1 32.2 0.00 0.00 0.00 56 1008.1
20260505224537 21 296 19.3 32.2 0.00 0.00 0.00 56 1008.1
20260505224435 21 213 16.1 30.6 0.00 0.00 0.00 56 1008.1
20260505224338 21 330 16.1 30.6 0.00 0.00 0.00 56 1008.4
20260505224238 21 309 12.9 30.6 0.00 0.00 0.00 56 1008.4
20260505224136 21 281 16.1 30.6 0.00 0.00 0.00 56 1008.4
20260505224034 21 257 12.9 30.6 0.00 0.00 0.00 56 1008.4
20260505223932 21 236 16.1 30.6 0.00 0.00 0.00 56 1008.4
20260505223831 21 254 17.7 30.6 0.00 0.00 0.00 56 1008.4
20260505223736 21 325 19.3 30.6 0.00 0.00 0.00 56 1008.4
20260505223654 21 272 12.9 30.6 0.00 0.00 0.00 56 1008.4
20260505223533 21 305 12.9 25.7 0.00 0.00 0.00 56 1008.4
20260505223434 21 251 11.3 25.7 0.00 0.00 0.00 56 1008.4
20260505223332 21 287 11.3 25.7 0.00 0.00 0.00 56 1008.4
20260505223233 21 254 9.7 27.4 0.00 0.00 0.00 56 1008.4
20260505223204 21 272 9.7 27.4 0.00 0.00 0.00 56 1008.4
20260505223025 21 272 14.5 27.4 0.00 0.00 0.00 56 1008.4
20260505222924 21 224 17.7 27.4 0.00 0.00 0.00 56 1008.4
20260505222845 21 233 12.9 27.4 0.00 0.00 0.00 55 1008.1
20260505222724 21 330 11.3 27.4 0.00 0.00 0.00 55 1008.1
20260505222643 21 250 11.3 27.4 0.00 0.00 0.00 55 1008.1
20260505222542 21 330 12.9 27.4 0.00 0.00 0.00 55 1008.1
20260505222441 21 287 14.5 27.4 0.00 0.00 0.00 55 1008.1
20260505222339 21 263 16.1 27.4 0.00 0.00 0.00 55 1008.1
20260505222241 21 271 17.7 29.0 0.00 0.00 0.00 55 1008.1
20260505222140 21 311 14.5 29.0 0.00 0.00 0.00 55 1008.1
20260505222058 21 299 8.0 29.0 0.00 0.00 0.00 55 1008.1
20260505221935 21 240 12.9 29.0 0.00 0.00 0.00 55 1008.1
20260505221854 21 329 12.9 29.0 0.00 0.00 0.00 55 1008.1
20260505221802 21 261 22.5 29.0 0.00 0.00 0.00 54 1008.1
20260505221649 21 312 12.9 29.0 0.00 0.00 0.00 54 1008.1
20260505221546 21 261 17.7 29.0 0.00 0.00 0.00 54 1008.1
20260505221443 21 246 16.1 30.6 0.00 0.00 0.00 54 1008.1
20260505221327 21 270 17.7 30.6 0.00 0.00 0.00 54 1008.3
20260505221225 21 254 14.5 30.6 0.00 0.00 0.00 54 1008.3
20260505221142 21 257 12.9 30.6 0.00 0.00 0.00 54 1008.3
20260505221040 21 318 8.0 30.6 0.00 0.00 0.00 54 1008.3
20260505220937 21 226 12.9 30.6 0.00 0.00 0.00 54 1008.3
20260505220856 21 309 11.3 30.6 0.00 0.00 0.00 54 1008.3
20260505220734 21 263 20.9 30.6 0.00 0.00 0.00 54 1008.3
20260505220653 21 318 19.3 30.6 0.00 0.00 0.00 54 1008.3
20260505220555 21 239 12.9 29.0 0.00 0.00 0.00 54 1008.3
20260505220430 21 289 22.5 33.8 0.00 0.00 0.00 54 1008.3
20260505220349 21 272 12.9 33.8 0.00 0.00 0.00 54 1008.3
20260505220226 21 250 9.7 33.8 0.00 0.00 0.00 53 1008.3
20260505220157 21 295 9.7 33.8 0.00 0.00 0.00 53 1008.3
20260505220054 21 232 6.4 33.8 0.00 0.00 0.00 53 1008.3
20260505215931 21 251 11.3 33.8 0.00 0.00 0.00 53 1008.3
20260505215849 21 217 12.9 33.8 0.00 0.00 0.00 54 1008.1
20260505215747 21 274 14.5 33.8 0.00 0.00 0.00 54 1008.1
20260505215705 21 272 19.3 33.8 0.00 0.00 0.00 54 1008.1
20260505215547 21 212 19.3 30.6 0.00 0.00 0.00 53 1008.1
20260505215424 21 234 19.3 32.2 0.00 0.00 0.00 54 1008.1
20260505215323 21 272 14.5 32.2 0.00 0.00 0.00 53 1008.1
20260505215225 21 287 17.7 32.2 0.00 0.00 0.00 53 1008.1
20260505215144 21 289 17.7 32.2 0.00 0.00 0.00 53 1008.1
20260505215102 21 256 8.0 32.2 0.00 0.00 0.00 53 1008.1
20260505214940 21 323 14.5 32.2 0.00 0.00 0.00 53 1008.1
20260505214859 21 217 20.9 32.2 0.00 0.00 0.00 52 1008.1
20260505214759 21 251 16.1 32.2 0.00 0.00 0.00 52 1008.1
20260505214651 21 237 12.9 32.2 0.00 0.00 0.00 52 1008.1
20260505214549 21 318 14.5 32.2 0.00 0.00 0.00 53 1008.1
20260505214426 21 280 14.5 29.0 0.00 0.00 0.00 53 1008.1
20260505214325 21 258 16.1 29.0 0.00 0.00 0.00 53 1008.2
20260505214245 21 246 17.7 29.0 0.00 0.00 0.00 53 1008.2
20260505214204 21 315 16.1 29.0 0.00 0.00 0.00 53 1008.2
20260505214041 21 271 16.1 32.2 0.00 0.00 0.00 53 1008.2
20260505213940 21 270 12.9 33.8 0.00 0.00 0.00 53 1008.2
20260505213843 21 278 14.5 33.8 0.00 0.00 0.00 53 1008.2
20260505213742 21 272 17.7 33.8 0.00 0.00 0.00 53 1008.2
20260505213639 21 288 12.9 33.8 0.00 0.00 0.00 53 1008.2
20260505213537 21 309 11.3 33.8 0.00 0.00 0.00 53 1008.2
20260505213434 21 270 17.7 33.8 0.00 0.00 0.00 53 1008.2
20260505213353 21 256 11.3 33.8 0.00 0.00 0.00 53 1008.2
20260505213232 21 254 20.9 33.8 0.00 0.00 0.00 53 1008.2
20260505213204 21 320 16.1 33.8 0.00 0.00 0.00 53 1008.2
20260505213024 21 232 8.0 22.5 0.00 0.00 0.00 53 1008.2
20260505212944 21 257 12.9 35.4 0.00 0.00 0.00 53 1008.2
20260505212904 21 275 16.1 35.4 0.00 0.00 0.00 53 1008.1
20260505212802 21 271 14.5 35.4 0.00 0.00 0.00 53 1008.1
20260505212640 21 271 14.5 35.4 0.00 0.00 0.00 53 1008.1
20260505212538 21 277 11.3 35.4 0.00 0.00 0.00 53 1008.1
20260505212436 21 270 6.4 35.4 0.00 0.00 0.00 54 1008.1
20260505212335 21 268 11.3 35.4 0.00 0.00 0.00 54 1008.1
20260505212232 21 217 14.5 35.4 0.00 0.00 0.00 54 1008.1
20260505212134 21 264 22.5 35.4 0.00 0.00 0.00 56 1008.1
20260505212053 21 277 25.7 35.4 0.00 0.00 0.00 56 1008.1
20260505211950 21 289 19.3 27.4 0.00 0.00 0.00 56 1008.1
20260505211909 21 281 16.1 25.7 0.00 0.00 0.00 55 1008.1
20260505211745 21 336 14.5 25.7 0.00 0.00 0.00 55 1008.1
20260505211715 21 312 12.9 29.0 0.00 0.00 0.00 55 1008.1
20260505211532 21 311 11.3 29.0 0.00 0.00 0.00 55 1008.1
20260505211450 21 328 17.7 33.8 0.00 0.00 0.00 55 1008.1
20260505211328 21 227 12.9 33.8 0.00 0.00 0.00 55 1007.7
20260505211231 21 250 14.5 33.8 0.00 0.00 0.00 54 1007.7
20260505211129 21 213 16.1 33.8 0.00 0.00 0.00 54 1007.7
20260505211025 21 274 6.4 33.8 0.00 0.00 0.00 54 1007.7
20260505210943 21 309 8.0 33.8 0.00 0.00 0.00 54 1007.7
20260505210842 21 261 12.9 33.8 0.00 0.00 0.00 54 1007.7
20260505210741 21 284 14.5 33.8 0.00 0.00 0.00 54 1007.7
20260505210640 21 240 14.5 33.8 0.00 0.00 0.00 54 1007.7
20260505210537 21 256 12.9 33.8 0.00 0.00 0.00 54 1007.7
20260505210440 21 263 11.3 29.0 0.00 0.00 0.00 54 1007.7
20260505210359 21 251 9.7 29.0 0.00 0.00 0.00 54 1007.7
20260505210236 21 237 12.9 29.0 0.00 0.00 0.00 54 1007.7
20260505210208 21 226 16.1 29.0 0.00 0.00 0.00 53 1007.7
20260505210043 21 251 14.5 29.0 0.00 0.00 0.00 53 1007.7
20260505205943 21 247 14.5 29.0 0.00 0.00 0.00 53 1007.7
20260505205901 21 239 17.7 29.0 0.00 0.00 0.00 53 1007.8
20260505205739 21 216 14.5 25.7 0.00 0.00 0.00 53 1007.8
20260505205637 21 223 14.5 25.7 0.00 0.00 0.00 53 1007.8
20260505205559 21 224 14.5 25.7 0.00 0.00 0.00 53 1007.8
20260505205456 21 258 9.7 25.7 0.00 0.00 0.00 53 1007.8
20260505205354 21 319 12.9 25.7 0.00 0.00 0.00 54 1007.8
20260505205231 21 281 14.5 25.7 0.00 0.00 0.00 53 1007.8
20260505205129 21 288 9.7 25.7 0.00 0.00 0.00 53 1007.8
20260505205028 21 291 9.7 19.3 0.00 0.00 0.00 53 1007.8
20260505204926 21 247 4.8 25.7 0.00 0.00 0.00 53 1007.8
20260505204846 21 275 8.0 25.7 0.00 0.00 0.00 53 1007.8
20260505204744 21 315 8.0 25.7 0.00 0.00 0.00 53 1007.8
20260505204717 21 254 8.0 25.7 0.00 0.00 0.00 53 1007.8
20260505204532 21 326 6.4 25.7 0.00 0.00 0.00 53 1007.8
20260505204450 21 323 9.7 25.7 0.00 0.00 0.00 53 1007.8
20260505204328 21 246 6.4 25.7 0.00 0.00 0.00 54 1008.0
20260505204227 21 308 11.3 25.7 0.00 0.00 0.00 53 1008.0
20260505204126 21 294 16.1 25.7 0.00 0.00 0.00 53 1008.0
20260505204025 21 186 8.0 22.5 0.00 0.00 0.00 53 1008.0
20260505203943 21 174 6.4 30.6 0.00 0.00 0.00 53 1008.0
20260505203847 21 326 11.3 30.6 0.00 0.00 0.00 52 1008.0
20260505203743 21 302 16.1 30.6 0.00 0.00 0.00 52 1008.0
20260505203641 21 313 11.3 30.6 0.00 0.00 0.00 53 1008.0
20260505203540 21 284 8.0 30.6 0.00 0.00 0.00 52 1008.0
20260505203438 21 292 16.1 30.6 0.00 0.00 0.00 52 1008.0
20260505203356 21 277 16.1 30.6 0.00 0.00 0.00 53 1008.0
20260505203234 21 220 14.5 30.6 0.00 0.00 0.00 53 1008.0
20260505203204 21 237 19.3 30.6 0.00 0.00 0.00 53 1008.0
20260505203024 21 244 8.0 22.5 0.00 0.00 0.00 52 1008.0
20260505202943 21 236 9.7 22.5 0.00 0.00 0.00 52 1008.0
20260505202841 21 185 6.4 22.5 0.00 0.00 0.00 52 1008.1
20260505202739 21 181 11.3 22.5 0.00 0.00 0.00 52 1008.1
20260505202659 21 250 9.7 22.5 0.00 0.00 0.00 51 1008.1
20260505202536 21 193 11.3 19.3 0.00 0.00 0.00 51 1008.1
20260505202434 21 287 9.7 19.3 0.00 0.00 0.00 51 1008.1
20260505202332 21 232 8.0 16.1 0.00 0.00 0.00 51 1008.1
20260505202236 21 208 8.0 16.1 0.00 0.00 0.00 52 1008.1
20260505202137 21 258 9.7 17.7 0.00 0.00 0.00 52 1008.1
20260505202056 21 267 8.0 17.7 0.00 0.00 0.00 52 1008.1
20260505201934 21 232 4.8 17.7 0.00 0.00 0.00 52 1008.1
20260505201833 21 227 4.8 17.7 0.00 0.00 0.00 51 1008.1
20260505201744 21 240 4.8 17.7 0.00 0.00 0.00 51 1008.1
20260505201653 21 222 4.8 17.7 0.00 0.00 0.00 50 1008.1
20260505201535 21 240 8.0 17.7 0.00 0.00 0.00 50 1008.1
20260505201434 21 202 11.3 17.7 0.00 0.00 0.00 50 1008.1
20260505201332 21 229 12.9 17.7 0.00 0.00 0.00 50 1009.3
20260505201230 21 210 12.9 16.1 0.00 0.00 0.00 50 1009.3
20260505201148 21 246 6.4 16.1 0.00 0.00 0.00 50 1009.3
20260505201027 21 195 8.0 16.1 0.00 0.00 0.00 50 1009.3
20260505200925 21 192 9.7 16.1 0.00 0.00 0.00 50 1009.3
20260505200828 21 195 9.7 16.1 0.00 0.00 0.00 50 1009.3
20260505200727 21 254 8.0 12.9 0.00 0.00 0.00 50 1009.3
20260505200624 21 319 0.0 12.9 0.00 0.00 0.00 50 1009.3
20260505200523 21 268 3.2 12.9 0.00 0.00 0.00 50 1009.3
20260505200425 21 253 6.4 12.9 0.00 0.00 0.00 50 1009.3
20260505200343 21 198 8.0 12.9 0.00 0.00 0.00 49 1009.3
20260505200233 21 236 4.8 22.5 0.00 0.00 0.00 49 1009.3
20260505200146 21 233 3.2 22.5 0.00 0.00 0.00 49 1009.3
20260505200042 21 257 4.8 22.5 0.00 0.00 0.00 49 1009.3
20260505195941 21 240 6.4 22.5 0.00 0.00 0.00 48 1009.3
20260505195840 21 289 8.0 22.5 0.00 0.00 0.00 48 1008.8
20260505195739 22 229 6.4 22.5 0.00 0.00 0.00 49 1008.8
20260505195658 22 233 6.4 22.5 0.00 0.00 0.00 49 1008.8
20260505195536 22 239 4.8 22.5 0.00 0.00 0.00 49 1008.8
20260505195435 22 206 12.9 22.5 0.00 0.00 0.00 49 1008.8
20260505195337 22 195 12.9 22.5 0.00 0.00 0.00 49 1008.8
20260505195234 22 250 6.4 20.9 0.00 0.00 0.00 48 1008.8
20260505195133 22 267 6.4 20.9 0.00 0.00 0.00 48 1008.8
20260505195055 22 169 12.9 20.9 0.00 0.00 0.00 49 1008.8
20260505194952 22 191 9.7 20.9 0.00 0.00 0.00 48 1008.8
20260505194831 22 254 12.9 20.9 0.00 0.00 0.00 48 1008.8
20260505194749 22 193 14.5 25.7 0.00 0.00 0.00 47 1008.8
20260505194719 22 165 12.9 25.7 0.00 0.00 0.00 48 1008.8
20260505194543 22 148 12.9 25.7 0.00 0.00 0.00 48 1008.8
20260505194442 22 193 11.3 25.7 0.00 0.00 0.00 47 1008.8
20260505194341 22 179 9.7 25.7 0.00 0.00 0.00 47 1009.3
20260505194302 22 206 11.3 27.4 0.00 0.00 0.00 47 1009.3
20260505194139 22 198 9.7 27.4 0.00 0.00 0.00 47 1009.3
20260505194038 22 316 11.3 27.4 0.00 0.00 0.00 47 1009.3
20260505193936 22 285 16.1 27.4 0.00 0.00 0.00 48 1009.3
20260505193838 22 267 11.3 27.4 0.00 0.00 0.00 48 1009.3
20260505193736 22 257 6.4 27.4 0.00 0.00 0.00 47 1009.3
20260505193654 22 299 8.0 27.4 0.00 0.00 0.00 47 1009.3
20260505193532 22 253 11.3 27.4 0.00 0.00 0.00 47 1009.3
20260505193430 22 212 17.7 27.4 0.00 0.00 0.00 47 1009.3
20260505193328 22 294 4.8 16.1 0.00 0.00 0.00 47 1009.3
20260505193237 22 326 3.2 16.1 0.00 0.00 0.00 47 1009.3
20260505193147 22 326 9.7 16.1 0.00 0.00 0.00 47 1009.3
20260505193027 22 296 4.8 16.1 0.00 0.00 0.00 47 1009.3
20260505192925 22 304 8.0 16.1 0.00 0.00 0.00 45 1009.3
20260505192843 22 325 6.4 20.9 0.00 0.00 0.00 44 1010.3
20260505192741 22 237 8.0 20.9 0.00 0.00 0.00 44 1010.3
20260505192639 22 329 3.2 20.9 0.00 0.00 0.00 44 1010.3
20260505192538 22 312 6.4 20.9 0.00 0.00 0.00 44 1010.3
20260505192436 22 313 6.4 20.9 0.00 0.00 0.00 44 1010.3
20260505192338 22 301 4.8 20.9 0.00 0.00 0.00 43 1010.3
20260505192237 22 298 6.4 20.9 0.00 0.00 0.00 43 1010.3
20260505192136 22 294 4.8 20.9 0.00 0.00 0.00 43 1010.3
20260505192035 22 189 9.7 20.9 0.00 0.00 0.00 43 1010.3
20260505191933 23 256 11.3 27.4 0.00 0.00 0.00 44 1010.3
20260505191832 23 264 11.3 27.4 0.00 0.00 0.00 44 1010.3
20260505191743 23 277 12.9 27.4 0.00 0.00 0.00 44 1010.3
20260505191657 23 196 6.4 27.4 0.00 0.00 0.00 44 1010.3
20260505191534 23 244 9.7 27.4 0.00 0.00 0.00 43 1010.3
20260505191433 23 298 9.7 27.4 0.00 0.00 0.00 43 1010.3
20260505191332 23 237 6.4 29.0 0.00 0.00 0.00 42 1010.6
20260505191230 23 256 9.7 29.0 0.00 0.00 0.00 41 1010.6
20260505191130 23 294 20.9 29.0 0.00 0.00 0.00 42 1010.6
20260505191030 23 270 16.1 29.0 0.00 0.00 0.00 41 1010.6
20260505190952 23 272 12.9 30.6 0.00 0.00 0.00 42 1010.6
20260505190850 23 291 14.5 30.6 0.00 0.00 0.00 42 1010.6
20260505190727 23 260 11.3 30.6 0.00 0.00 0.00 42 1010.6
20260505190626 23 299 9.7 30.6 0.00 0.00 0.00 42 1010.6
20260505190526 23 318 11.3 30.6 0.00 0.00 0.00 41 1010.6
20260505190425 23 278 14.5 30.6 0.00 0.00 0.00 41 1010.6
20260505190343 23 312 19.3 30.6 0.00 0.00 0.00 41 1010.6
20260505190240 23 304 16.1 30.6 0.00 0.00 0.00 42 1010.6
20260505190148 23 285 11.3 30.6 0.00 0.00 0.00 42 1010.6
20260505190029 23 304 12.9 30.6 0.00 0.00 0.00 43 1010.6
20260505185946 23 292 8.0 29.0 0.00 0.00 0.00 43 1010.6
20260505185843 23 336 11.3 29.0 0.00 0.00 0.00 42 1010.6
20260505185741 23 299 9.7 29.0 0.00 0.00 0.00 42 1010.6
20260505185638 23 236 11.3 30.6 0.00 0.00 0.00 42 1010.6
20260505185537 23 332 9.7 33.8 0.00 0.00 0.00 41 1010.6
20260505185436 23 319 11.3 33.8 0.00 0.00 0.00 41 1010.6
20260505185339 23 281 12.9 33.8 0.00 0.00 0.00 41 1010.6
20260505185237 24 233 16.1 33.8 0.00 0.00 0.00 40 1010.6
20260505185155 24 328 16.1 33.8 0.00 0.00 0.00 40 1010.6
20260505185033 24 312 14.5 33.8 0.00 0.00 0.00 40 1010.6
20260505184932 24 278 19.3 33.8 0.00 0.00 0.00 39 1010.6
20260505184831 24 282 14.5 33.8 0.00 0.00 0.00 40 1010.6
20260505184730 24 296 19.3 33.8 0.00 0.00 0.00 40 1010.6
20260505184658 24 243 14.5 33.8 0.00 0.00 0.00 40 1010.6
20260505184539 24 309 17.7 30.6 0.00 0.00 0.00 39 1010.6
20260505184438 24 325 16.1 33.8 0.00 0.00 0.00 40 1010.6
20260505184336 24 320 20.9 33.8 0.00 0.00 0.00 40 1010.7
20260505184236 24 258 19.3 33.8 0.00 0.00 0.00 39 1010.7
20260505184136 24 272 17.7 33.8 0.00 0.00 0.00 39 1010.7
20260505184034 24 316 20.9 33.8 0.00 0.00 0.00 39 1010.7
20260505183937 24 294 20.9 33.8 0.00 0.00 0.00 40 1010.7
20260505183837 24 301 22.5 33.8 0.00 0.00 0.00 40 1010.7
20260505183754 24 306 24.1 33.8 0.00 0.00 0.00 39 1010.7
20260505183632 24 250 17.7 33.8 0.00 0.00 0.00 39 1010.7
20260505183531 24 275 17.7 29.0 0.00 0.00 0.00 39 1010.7
20260505183429 24 270 12.9 25.7 0.00 0.00 0.00 39 1010.7
20260505183327 24 285 17.7 29.0 0.00 0.00 0.00 40 1010.7
20260505183245 24 284 9.7 29.0 0.00 0.00 0.00 41 1010.7
20260505183202 24 240 14.5 38.6 0.00 0.00 0.00 40 1010.7
20260505183038 24 263 12.9 38.6 0.00 0.00 0.00 41 1010.7
20260505182937 24 291 4.8 38.6 0.00 0.00 0.00 41 1010.7
20260505182855 24 280 11.3 38.6 0.00 0.00 0.00 41 1010.7
20260505182753 24 319 8.0 38.6 0.00 0.00 0.00 39 1010.7
20260505182630 24 257 9.7 38.6 0.00 0.00 0.00 40 1010.7
20260505182528 24 243 19.3 38.6 0.00 0.00 0.00 40 1010.7
20260505182427 24 275 19.3 38.6 0.00 0.00 0.00 40 1010.7
20260505182330 24 312 24.1 38.6 0.00 0.00 0.00 40 1010.7
20260505182228 24 284 12.9 32.2 0.00 0.00 0.00 39 1010.7
20260505182126 24 285 12.9 32.2 0.00 0.00 0.00 40 1010.7
20260505182025 24 263 20.9 32.2 0.00 0.00 0.00 39 1010.7
20260505181928 24 296 22.5 32.2 0.00 0.00 0.00 39 1010.7
20260505181847 24 291 22.5 33.8 0.00 0.00 0.00 40 1010.7
20260505181805 24 237 14.5 33.8 0.00 0.00 0.00 40 1010.7
20260505181714 24 311 11.3 33.8 0.00 0.00 0.00 41 1010.7
20260505181535 24 295 9.7 33.8 0.00 0.00 0.00 41 1010.7
20260505181434 24 296 16.1 33.8 0.00 0.00 0.00 40 1010.7
20260505181331 24 248 14.5 33.8 0.00 0.00 0.00 41 1010.7
20260505181233 24 287 12.9 33.8 0.00 0.00 0.00 40 1010.7
20260505181131 24 315 20.9 33.8 0.00 0.00 0.00 39 1010.7
20260505181029 24 305 20.9 33.8 0.00 0.00 0.00 41 1010.7
20260505180927 23 209 16.1 25.7 0.00 0.00 0.00 42 1010.7
20260505180831 23 295 11.3 25.7 0.00 0.00 0.00 42 1010.7
20260505180731 23 312 8.0 22.5 0.00 0.00 0.00 41 1010.7
20260505180632 23 267 4.8 22.5 0.00 0.00 0.00 41 1010.7
20260505180531 23 237 11.3 22.5 0.00 0.00 0.00 41 1010.7
20260505180429 23 280 11.3 29.0 0.00 0.00 0.00 42 1010.7
20260505180327 23 313 16.1 29.0 0.00 0.00 0.00 42 1010.7
20260505180240 23 265 17.7 29.0 0.00 0.00 0.00 43 1010.7
20260505180150 23 285 12.9 29.0 0.00 0.00 0.00 43 1010.7
20260505180025 23 277 11.3 29.0 0.00 0.00 0.00 42 1010.7
20260505175944 23 280 4.8 29.0 0.00 0.00 0.00 42 1010.7
20260505175841 23 288 6.4 29.0 0.00 0.00 0.00 41 1010.8
20260505175800 23 251 8.0 29.0 0.00 0.00 0.00 41 1010.8
20260505175637 23 260 9.7 29.0 0.00 0.00 0.00 43 1010.8
20260505175536 23 260 16.1 29.0 0.00 0.00 0.00 43 1010.8
20260505175438 23 306 8.0 27.4 0.00 0.00 0.00 44 1010.8
20260505175338 23 306 11.3 30.6 0.00 0.00 0.00 42 1010.8
20260505175239 23 264 12.9 30.6 0.00 0.00 0.00 42 1010.8
20260505175156 23 251 11.3 30.6 0.00 0.00 0.00 41 1010.8
20260505175034 23 247 14.5 30.6 0.00 0.00 0.00 42 1010.8
20260505174953 23 304 14.5 30.6 0.00 0.00 0.00 42 1010.8
20260505174830 23 275 11.3 30.6 0.00 0.00 0.00 41 1010.8
20260505174729 23 263 12.9 30.6 0.00 0.00 0.00 41 1010.8
20260505174657 23 233 9.7 30.6 0.00 0.00 0.00 41 1010.8
20260505174555 23 296 16.1 30.6 0.00 0.00 0.00 40 1010.8
20260505174437 23 281 22.5 30.6 0.00 0.00 0.00 39 1010.8
20260505174355 23 302 16.1 30.6 0.00 0.00 0.00 39 1010.9
20260505174233 23 281 16.1 30.6 0.00 0.00 0.00 40 1010.9
20260505174130 23 272 6.4 30.6 0.00 0.00 0.00 38 1010.9
20260505174049 23 246 11.3 30.6 0.00 0.00 0.00 38 1010.9
20260505173929 23 253 17.7 30.6 0.00 0.00 0.00 38 1010.9
20260505173828 23 229 11.3 27.4 0.00 0.00 0.00 39 1010.9
20260505173726 23 329 11.3 27.4 0.00 0.00 0.00 38 1010.9
20260505173628 24 275 12.9 27.4 0.00 0.00 0.00 40 1010.9
20260505173547 24 247 17.7 27.4 0.00 0.00 0.00 39 1010.9
20260505173426 24 296 12.9 25.7 0.00 0.00 0.00 39 1010.9
20260505173348 24 274 14.5 35.4 0.00 0.00 0.00 38 1010.9
20260505173236 24 227 12.9 35.4 0.00 0.00 0.00 38 1010.9
20260505173147 24 237 12.9 35.4 0.00 0.00 0.00 39 1010.9
20260505173024 24 272 8.0 35.4 0.00 0.00 0.00 38 1010.9
20260505172943 24 296 12.9 35.4 0.00 0.00 0.00 38 1010.9
20260505172825 24 246 12.9 35.4 0.00 0.00 0.00 38 1011.3
20260505172724 24 248 9.7 35.4 0.00 0.00 0.00 37 1011.3
20260505172642 24 280 11.3 35.4 0.00 0.00 0.00 37 1011.3
20260505172540 24 256 20.9 35.4 0.00 0.00 0.00 38 1011.3
20260505172458 24 304 14.5 40.2 0.00 0.00 0.00 38 1011.3
20260505172336 24 285 11.3 40.2 0.00 0.00 0.00 38 1011.3
20260505172236 24 277 19.3 40.2 0.00 0.00 0.00 39 1011.3
20260505172138 24 299 11.3 40.2 0.00 0.00 0.00 38 1011.3
20260505172036 24 318 16.1 45.1 0.00 0.00 0.00 37 1011.3
20260505171935 24 323 12.9 45.1 0.00 0.00 0.00 37 1011.3
20260505171853 23 287 12.9 45.1 0.00 0.00 0.00 38 1011.3
20260505171750 23 315 9.7 45.1 0.00 0.00 0.00 38 1011.3
20260505171720 23 308 16.1 45.1 0.00 0.00 0.00 38 1011.3
20260505171538 23 322 17.7 45.1 0.00 0.00 0.00 39 1011.3
20260505171440 23 264 12.9 45.1 0.00 0.00 0.00 38 1011.3
20260505171359 23 328 16.1 45.1 0.00 0.00 0.00 38 1011.2
20260505171240 23 213 20.9 45.1 0.00 0.00 0.00 37 1011.2
20260505171138 23 291 19.3 45.1 0.00 0.00 0.00 39 1011.2
20260505171057 23 251 14.5 32.2 0.00 0.00 0.00 40 1011.2
20260505170933 23 306 16.1 32.2 0.00 0.00 0.00 39 1011.2
20260505170832 23 253 12.9 32.2 0.00 0.00 0.00 39 1011.2
20260505170730 23 295 17.7 32.2 0.00 0.00 0.00 39 1011.2
20260505170628 23 285 19.3 32.2 0.00 0.00 0.00 39 1011.2
20260505170530 23 237 11.3 32.2 0.00 0.00 0.00 40 1011.2
20260505170449 23 251 17.7 32.2 0.00 0.00 0.00 40 1011.2
20260505170327 23 343 16.1 32.2 0.00 0.00 0.00 40 1011.2
20260505170236 23 265 8.0 32.2 0.00 0.00 0.00 39 1011.2
20260505170147 23 215 12.9 32.2 0.00 0.00 0.00 39 1011.2
20260505170043 23 265 8.0 32.2 0.00 0.00 0.00 40 1011.2
20260505165940 23 212 8.0 32.2 0.00 0.00 0.00 40 1011.2
20260505165839 23 271 14.5 32.2 0.00 0.00 0.00 40 1011.3
20260505165743 23 285 20.9 32.2 0.00 0.00 0.00 39 1011.3
20260505165702 23 270 16.1 32.2 0.00 0.00 0.00 40 1011.3
20260505165541 23 284 16.1 32.2 0.00 0.00 0.00 40 1011.3
20260505165439 23 309 19.3 32.2 0.00 0.00 0.00 40 1011.3
20260505165337 23 239 16.1 32.2 0.00 0.00 0.00 40 1011.3
20260505165255 23 288 17.7 32.2 0.00 0.00 0.00 40 1011.3
20260505165133 23 302 14.5 32.2 0.00 0.00 0.00 40 1011.3
20260505165031 23 289 11.3 32.2 0.00 0.00 0.00 41 1011.3
20260505164936 23 267 19.3 32.2 0.00 0.00 0.00 41 1011.3
20260505164834 23 267 20.9 32.2 0.00 0.00 0.00 42 1011.3
20260505164753 23 288 11.3 32.2 0.00 0.00 0.00 41 1011.3
20260505164724 23 278 12.9 32.2 0.00 0.00 0.00 41 1011.3
20260505164540 23 322 19.3 32.2 0.00 0.00 0.00 42 1011.3
20260505164438 23 236 14.5 30.6 0.00 0.00 0.00 43 1011.3
20260505164336 23 184 11.3 30.6 0.00 0.00 0.00 44 1011.4
20260505164238 23 287 19.3 30.6 0.00 0.00 0.00 43 1011.4
20260505164138 23 295 11.3 29.0 0.00 0.00 0.00 42 1011.4
20260505164036 23 229 16.1 29.0 0.00 0.00 0.00 42 1011.4
20260505163933 23 256 20.9 32.2 0.00 0.00 0.00 42 1011.4
20260505163832 23 254 12.9 38.6 0.00 0.00 0.00 43 1011.4
20260505163751 23 243 9.7 41.8 0.00 0.00 0.00 43 1011.4
20260505163628 23 277 12.9 41.8 0.00 0.00 0.00 43 1011.4
20260505163530 23 309 14.5 41.8 0.00 0.00 0.00 43 1011.4
20260505163428 23 210 14.5 41.8 0.00 0.00 0.00 42 1011.4
20260505163329 23 263 3.2 41.8 0.00 0.00 0.00 42 1011.4
20260505163239 23 239 22.5 41.8 0.00 0.00 0.00 42 1011.4
20260505163150 23 281 17.7 41.8 0.00 0.00 0.00 42 1011.4
20260505163028 23 298 25.7 41.8 0.00 0.00 0.00 42 1011.4
20260505162947 23 311 27.4 41.8 0.00 0.00 0.00 43 1011.4
20260505162825 23 226 12.9 22.5 0.00 0.00 0.00 44 1011.4
20260505162727 23 287 8.0 22.5 0.00 0.00 0.00 44 1011.4
20260505162647 23 302 9.7 22.5 0.00 0.00 0.00 44 1011.4
20260505162544 23 302 11.3 22.5 0.00 0.00 0.00 45 1011.4
20260505162442 23 215 8.0 22.5 0.00 0.00 0.00 46 1011.4
20260505162340 23 265 6.4 27.4 0.00 0.00 0.00 46 1011.4
20260505162239 23 251 9.7 27.4 0.00 0.00 0.00 47 1011.4
20260505162201 23 281 11.3 27.4 0.00 0.00 0.00 47 1011.4
20260505162038 23 263 14.5 27.4 0.00 0.00 0.00 47 1011.4
20260505161940 22 294 11.3 27.4 0.00 0.00 0.00 47 1011.4
20260505161838 22 289 9.7 27.4 0.00 0.00 0.00 47 1011.4
20260505161739 22 268 9.7 27.4 0.00 0.00 0.00 48 1011.4
20260505161709 22 237 12.9 27.4 0.00 0.00 0.00 48 1011.4
20260505161545 22 302 14.5 27.4 0.00 0.00 0.00 48 1011.4
20260505161504 22 285 9.7 27.4 0.00 0.00 0.00 48 1011.4
20260505161342 22 287 9.7 24.1 0.00 0.00 0.00 48 1011.4
20260505161300 22 289 6.4 24.1 0.00 0.00 0.00 47 1011.4
20260505161137 22 277 11.3 24.1 0.00 0.00 0.00 49 1011.4
20260505161040 22 254 11.3 24.1 0.00 0.00 0.00 49 1011.4
20260505160957 22 291 12.9 24.1 0.00 0.00 0.00 49 1011.4
20260505160835 22 302 16.1 24.1 0.00 0.00 0.00 49 1011.4
20260505160734 22 261 11.3 20.9 0.00 0.00 0.00 49 1011.4
20260505160632 22 246 8.0 19.3 0.00 0.00 0.00 50 1011.4
20260505160530 22 254 9.7 17.7 0.00 0.00 0.00 50 1011.4
20260505160428 22 328 4.8 17.7 0.00 0.00 0.00 51 1011.4
20260505160331 22 292 8.0 22.5 0.00 0.00 0.00 51 1011.4
20260505160228 22 284 1.6 22.5 0.00 0.00 0.00 51 1011.4
20260505160158 22 278 6.4 22.5 0.00 0.00 0.00 51 1011.4
20260505153330 20 264 6.4 19.3 0.00 0.00 0.00 55 1011.5
20260505153227 20 198 6.4 17.7 0.00 0.00 0.00 56 1011.5
20260505153158 20 302 9.7 17.7 0.00 0.00 0.00 56 1011.5
20260505153038 20 219 4.8 16.1 0.00 0.00 0.00 56 1011.5
20260505152937 20 240 4.8 16.1 0.00 0.00 0.00 56 1011.5
20260505152834 20 229 8.0 16.1 0.00 0.00 0.00 56 1010.6
20260505152738 20 278 6.4 16.1 0.00 0.00 0.00 56 1010.6
20260505152635 20 275 3.2 16.1 0.00 0.00 0.00 56 1010.6
20260505152534 20 257 3.2 16.1 0.00 0.00 0.00 56 1010.6
20260505152433 20 234 9.7 16.1 0.00 0.00 0.00 56 1010.6
20260505152333 20 261 4.8 16.1 0.00 0.00 0.00 56 1010.6
20260505152230 20 184 6.4 16.1 0.00 0.00 0.00 56 1010.6
20260505152127 20 291 4.8 17.7 0.00 0.00 0.00 57 1010.6
20260505152030 20 188 4.8 17.7 0.00 0.00 0.00 56 1010.6
20260505151949 20 195 8.0 19.3 0.00 0.00 0.00 57 1010.6
20260505151826 20 215 11.3 19.3 0.00 0.00 0.00 56 1010.6
20260505151735 20 251 9.7 19.3 0.00 0.00 0.00 57 1010.6
20260505151645 20 313 6.4 19.3 0.00 0.00 0.00 59 1010.6
20260505151543 20 280 6.4 19.3 0.00 0.00 0.00 59 1010.6
20260505151442 20 278 9.7 19.3 0.00 0.00 0.00 59 1010.6
20260505151325 20 278 11.3 19.3 0.00 0.00 0.00 60 1010.7
20260505151223 20 257 1.6 22.5 0.00 0.00 0.00 60 1010.7
20260505151142 20 294 8.0 22.5 0.00 0.00 0.00 60 1010.7
20260505151102 19 265 9.7 22.5 0.00 0.00 0.00 59 1010.7
20260505150937 19 271 3.2 22.5 0.00 0.00 0.00 59 1010.7
20260505150835 19 263 4.8 22.5 0.00 0.00 0.00 59 1010.7
20260505150733 19 298 8.0 22.5 0.00 0.00 0.00 60 1010.7
20260505150632 19 280 4.8 22.5 0.00 0.00 0.00 60 1010.7
20260505150534 19 288 4.8 22.5 0.00 0.00 0.00 60 1010.7
20260505150453 19 275 11.3 22.5 0.00 0.00 0.00 59 1010.7
20260505150331 19 267 14.5 22.5 0.00 0.00 0.00 59 1010.7
20260505150241 19 318 11.3 22.5 0.00 0.00 0.00 60 1010.7
20260505150151 19 316 11.3 22.5 0.00 0.00 0.00 60 1010.7
20260505140637 17 329 8.0 27.4 0.00 0.00 0.00 65 1011.0
20260505140535 17 311 14.5 27.4 0.00 0.00 0.00 65 1011.0
20260505140433 17 268 11.3 27.4 0.00 0.00 0.00 65 1011.0
20260505140331 17 323 12.9 27.4 0.00 0.00 0.00 65 1011.0
20260505140241 17 325 9.7 27.4 0.00 0.00 0.00 65 1011.0
20260505140151 17 284 16.1 27.4 0.00 0.00 0.00 66 1011.0
20260505130238 15 240 16.1 33.8 0.00 0.00 0.00 69 1010.6
20260505130147 15 270 22.5 33.8 0.00 0.00 0.00 69 1010.6
20260505125033 15 256 12.9 32.2 0.00 0.00 0.00 69 1010.4
20260505124951 15 253 20.9 33.8 0.00 0.00 0.00 69 1010.4
20260505124828 15 302 14.5 33.8 0.00 0.00 0.00 69 1010.4
20260505124738 15 257 24.1 33.8 0.00 0.00 0.00 69 1010.4
20260505124647 15 272 12.9 33.8 0.00 0.00 0.00 69 1010.4
20260505124544 15 275 14.5 33.8 0.00 0.00 0.00 69 1010.4
20260505124425 15 298 16.1 33.8 0.00 0.00 0.00 69 1010.4
20260505124345 15 265 17.7 33.8 0.00 0.00 0.00 69 1010.5
20260505124302 15 330 17.7 33.8 0.00 0.00 0.00 69 1010.5
20260505124140 15 253 22.5 33.8 0.00 0.00 0.00 70 1010.5
20260505124037 15 282 22.5 33.8 0.00 0.00 0.00 70 1010.5
20260505123937 15 280 14.5 32.2 0.00 0.00 0.00 70 1010.5
20260505123835 15 258 22.5 32.2 0.00 0.00 0.00 70 1010.5
20260505123734 15 272 17.7 32.2 0.00 0.00 0.00 70 1010.5
20260505123636 15 278 16.1 32.2 0.00 0.00 0.00 70 1010.5
20260505123534 15 246 16.1 32.2 0.00 0.00 0.00 70 1010.5
20260505123453 15 268 17.7 32.2 0.00 0.00 0.00 70 1010.5
20260505123331 15 288 20.9 32.2 0.00 0.00 0.00 70 1010.5
20260505123301 15 271 16.1 32.2 0.00 0.00 0.00 70 1010.5
20260505123150 15 306 9.7 32.2 0.00 0.00 0.00 70 1010.5
20260505123046 15 257 8.0 32.2 0.00 0.00 0.00 70 1010.5
20260505123004 15 230 9.7 32.2 0.00 0.00 0.00 70 1010.5
20260505122826 15 257 17.7 32.2 0.00 0.00 0.00 70 1010.4
20260505122725 15 281 12.9 32.2 0.00 0.00 0.00 70 1010.4
20260505122644 15 264 17.7 32.2 0.00 0.00 0.00 70 1010.4
20260505122601 15 268 16.1 32.2 0.00 0.00 0.00 70 1010.4
20260505122438 15 261 17.7 32.2 0.00 0.00 0.00 70 1010.4
20260505122337 15 281 22.5 32.2 0.00 0.00 0.00 70 1010.4
20260505122255 15 274 17.7 29.0 0.00 0.00 0.00 70 1010.4
20260505122131 15 176 17.7 29.0 0.00 0.00 0.00 71 1010.4
20260505122051 15 233 16.1 29.0 0.00 0.00 0.00 71 1010.4
20260505121932 15 319 20.9 29.0 0.00 0.00 0.00 70 1010.4
20260505121831 15 237 12.9 29.0 0.00 0.00 0.00 70 1010.4
20260505121740 15 205 17.7 29.0 0.00 0.00 0.00 70 1010.4
20260505121648 15 220 14.5 29.0 0.00 0.00 0.00 70 1010.4
20260505121525 15 261 17.7 29.0 0.00 0.00 0.00 70 1010.4
20260505121443 15 263 16.1 29.0 0.00 0.00 0.00 70 1010.4
20260505121342 15 233 16.1 29.0 0.00 0.00 0.00 70 1010.0
20260505121225 15 265 19.3 29.0 0.00 0.00 0.00 70 1010.0
20260505121124 15 232 20.9 29.0 0.00 0.00 0.00 70 1010.0
20260505121042 15 215 16.1 32.2 0.00 0.00 0.00 70 1010.0
20260505121000 15 265 16.1 32.2 0.00 0.00 0.00 70 1010.0
20260505120838 15 236 20.9 32.2 0.00 0.00 0.00 70 1010.0
20260505120737 15 268 11.3 32.2 0.00 0.00 0.00 70 1010.0
20260505120634 15 260 17.7 32.2 0.00 0.00 0.00 70 1010.0
20260505120533 15 230 20.9 32.2 0.00 0.00 0.00 69 1010.0
20260505120435 15 234 14.5 32.2 0.00 0.00 0.00 69 1010.0
20260505120354 15 224 16.1 33.8 0.00 0.00 0.00 69 1010.0
20260505120231 15 244 19.3 33.8 0.00 0.00 0.00 69 1010.0
20260505120203 15 258 16.1 33.8 0.00 0.00 0.00 69 1010.0
20260505120040 15 274 16.1 33.8 0.00 0.00 0.00 69 1010.0
20260505115958 15 251 14.5 33.8 0.00 0.00 0.00 69 1010.0
20260505115838 15 254 16.1 35.4 0.00 0.00 0.00 69 1009.8
20260505115735 15 264 16.1 35.4 0.00 0.00 0.00 69 1009.8
20260505115658 15 241 16.1 35.4 0.00 0.00 0.00 69 1009.8
20260505115536 15 241 20.9 35.4 0.00 0.00 0.00 69 1009.8
20260505115434 15 267 12.9 35.4 0.00 0.00 0.00 69 1009.8
20260505115333 15 267 19.3 35.4 0.00 0.00 0.00 69 1009.8
20260505115230 15 244 12.9 35.4 0.00 0.00 0.00 69 1009.8
20260505115129 15 241 16.1 35.4 0.00 0.00 0.00 69 1009.8
20260505115028 15 256 20.9 35.4 0.00 0.00 0.00 69 1009.8
20260505114930 15 253 19.3 32.2 0.00 0.00 0.00 69 1009.8
20260505114828 15 257 22.5 32.2 0.00 0.00 0.00 69 1009.8
20260505114737 15 240 22.5 32.2 0.00 0.00 0.00 69 1009.8
20260505114646 15 253 16.1 32.2 0.00 0.00 0.00 69 1009.8
20260505114544 15 258 17.7 32.2 0.00 0.00 0.00 69 1009.8
20260505114504 15 268 22.5 32.2 0.00 0.00 0.00 69 1009.8
20260505114404 15 248 20.9 32.2 0.00 0.00 0.00 69 1009.4
20260505114302 15 261 16.1 32.2 0.00 0.00 0.00 68 1009.4
20260505114139 15 254 17.7 32.2 0.00 0.00 0.00 68 1009.4
20260505114041 15 271 24.1 32.2 0.00 0.00 0.00 68 1009.4
20260505113939 15 305 19.3 32.2 0.00 0.00 0.00 68 1009.4
20260505113857 15 277 16.1 32.2 0.00 0.00 0.00 68 1009.4
20260505113735 15 244 19.3 32.2 0.00 0.00 0.00 68 1009.4
20260505113635 15 240 20.9 33.8 0.00 0.00 0.00 68 1009.4
20260505113533 15 278 17.7 33.8 0.00 0.00 0.00 68 1009.4
20260505113431 15 281 14.5 33.8 0.00 0.00 0.00 68 1009.4
20260505113334 15 234 22.5 35.4 0.00 0.00 0.00 68 1009.4
20260505113304 15 277 19.3 35.4 0.00 0.00 0.00 68 1009.4
20260505113152 15 277 11.3 35.4 0.00 0.00 0.00 68 1009.4
20260505113029 15 260 19.3 35.4 0.00 0.00 0.00 68 1009.4
20260505112929 15 289 19.3 35.4 0.00 0.00 0.00 68 1009.4
20260505112828 15 268 27.4 35.4 0.00 0.00 0.00 68 1009.4
20260505112725 15 264 24.1 35.4 0.00 0.00 0.00 68 1009.4
20260505112626 15 256 12.9 35.4 0.00 0.00 0.00 68 1009.4
20260505112528 15 237 19.3 35.4 0.00 0.00 0.00 68 1009.4
20260505112451 15 294 16.1 35.4 0.00 0.00 0.00 68 1009.4
20260505112328 15 267 12.9 30.6 0.00 0.00 0.00 68 1009.4
20260505112226 15 240 22.5 30.6 0.00 0.00 0.00 68 1009.4
20260505112125 15 281 17.7 30.6 0.00 0.00 0.00 68 1009.4
20260505112042 15 188 19.3 33.8 0.00 0.00 0.00 68 1009.4
20260505111943 15 280 16.1 33.8 0.00 0.00 0.00 68 1009.4
20260505111826 15 270 16.1 33.8 0.00 0.00 0.00 68 1009.4
20260505111745 15 285 20.9 33.8 0.00 0.00 0.00 68 1009.4
20260505111653 15 277 17.7 33.8 0.00 0.00 0.00 68 1009.4
20260505111531 15 301 14.5 33.8 0.00 0.00 0.00 68 1009.4
20260505111429 15 264 19.3 33.8 0.00 0.00 0.00 68 1009.4
20260505111349 15 272 17.7 33.8 0.00 0.00 0.00 68 1009.1
20260505111227 15 264 19.3 33.8 0.00 0.00 0.00 68 1009.1
20260505111125 15 244 20.9 33.8 0.00 0.00 0.00 67 1009.1
20260505111047 15 309 16.1 33.8 0.00 0.00 0.00 67 1009.1
20260505110945 15 244 14.5 33.8 0.00 0.00 0.00 67 1009.1
20260505110903 15 298 16.1 33.8 0.00 0.00 0.00 67 1009.1
20260505110740 15 308 19.3 33.8 0.00 0.00 0.00 67 1009.1
20260505110632 15 318 17.7 30.6 0.00 0.00 0.00 67 1009.1
20260505110531 15 226 19.3 32.2 0.00 0.00 0.00 67 1009.1
20260505110432 15 265 20.9 32.2 0.00 0.00 0.00 67 1009.1
20260505110351 15 277 19.3 32.2 0.00 0.00 0.00 67 1009.1
20260505110231 15 265 14.5 32.2 0.00 0.00 0.00 67 1009.1
20260505110202 15 254 14.5 32.2 0.00 0.00 0.00 67 1009.1
20260505102138 15 270 20.9 33.8 0.00 0.00 0.00 65 1008.5
20260505102036 15 277 17.7 33.8 0.00 0.00 0.00 64 1008.5
20260505101935 15 256 14.5 33.8 0.00 0.00 0.00 64 1008.5
20260505101834 15 295 19.3 33.8 0.00 0.00 0.00 64 1008.5
20260505101732 15 267 17.7 33.8 0.00 0.00 0.00 64 1008.5
20260505101703 15 292 20.9 33.8 0.00 0.00 0.00 64 1008.5
20260505101525 15 326 17.7 35.4 0.00 0.00 0.00 64 1008.5
20260505101425 15 309 20.9 35.4 0.00 0.00 0.00 64 1008.5
20260505101323 15 322 16.1 35.4 0.00 0.00 0.00 64 1008.5
20260505101242 15 306 20.9 35.4 0.00 0.00 0.00 64 1008.5
20260505101140 15 301 19.3 35.4 0.00 0.00 0.00 64 1008.5
20260505101039 15 257 17.7 35.4 0.00 0.00 0.00 64 1008.5
20260505100938 15 258 19.3 35.4 0.00 0.00 0.00 63 1008.5
20260505100840 15 312 17.7 35.4 0.00 0.00 0.00 63 1008.5
20260505100759 15 296 22.5 35.4 0.00 0.00 0.00 63 1008.5
20260505100635 15 281 19.3 35.4 0.00 0.00 0.00 63 1008.5
20260505100539 15 251 17.7 35.4 0.00 0.00 0.00 63 1008.5
20260505100458 15 243 19.3 35.4 0.00 0.00 0.00 63 1008.5
20260505100418 15 251 16.1 35.4 0.00 0.00 0.00 63 1008.5
20260505100317 15 289 14.5 35.4 0.00 0.00 0.00 63 1008.5
20260505100228 15 244 20.9 41.8 0.00 0.00 0.00 63 1008.5
20260505100104 15 294 20.9 41.8 0.00 0.00 0.00 63 1008.5
20260505095925 15 258 22.5 43.5 0.00 0.00 0.00 63 1008.5
20260505095824 15 272 16.1 43.5 0.00 0.00 0.00 63 1008.2
20260505095742 15 246 20.9 43.5 0.00 0.00 0.00 63 1008.2
20260505095700 15 234 20.9 43.5 0.00 0.00 0.00 63 1008.2
20260505095558 16 270 20.9 43.5 0.00 0.00 0.00 62 1008.2
20260505095435 16 292 20.9 43.5 0.00 0.00 0.00 62 1008.2
20260505095353 16 209 24.1 43.5 0.00 0.00 0.00 62 1008.2
20260505095231 16 265 19.3 43.5 0.00 0.00 0.00 63 1008.2
20260505095129 16 308 22.5 43.5 0.00 0.00 0.00 62 1008.2
20260505095032 16 288 17.7 32.2 0.00 0.00 0.00 62 1008.2
20260505094931 16 282 19.3 32.2 0.00 0.00 0.00 62 1008.2
20260505094829 16 274 24.1 32.2 0.00 0.00 0.00 62 1008.2
20260505094739 16 274 16.1 32.2 0.00 0.00 0.00 62 1008.2
20260505094648 16 216 20.9 32.2 0.00 0.00 0.00 62 1008.2
20260505094526 16 309 17.7 40.2 0.00 0.00 0.00 62 1008.2
20260505094426 16 216 22.5 40.2 0.00 0.00 0.00 62 1008.2
20260505094328 16 288 12.9 40.2 0.00 0.00 0.00 62 1008.0
20260505094225 16 243 22.5 40.2 0.00 0.00 0.00 62 1008.0
20260505094124 16 227 19.3 40.2 0.00 0.00 0.00 62 1008.0
20260505094043 16 275 16.1 40.2 0.00 0.00 0.00 62 1008.0
20260505094001 16 289 19.3 40.2 0.00 0.00 0.00 62 1008.0
20260505093838 16 311 17.7 40.2 0.00 0.00 0.00 61 1008.0
20260505093738 16 199 20.9 45.1 0.00 0.00 0.00 62 1008.0
20260505093639 16 296 19.3 45.1 0.00 0.00 0.00 61 1008.0
20260505093538 16 285 22.5 45.1 0.00 0.00 0.00 61 1008.0
20260505093456 16 318 22.5 45.1 0.00 0.00 0.00 61 1008.0
20260505093352 16 306 27.4 45.1 0.00 0.00 0.00 61 1008.0
20260505093301 16 285 17.7 45.1 0.00 0.00 0.00 61 1008.0
20260505093150 16 189 17.7 45.1 0.00 0.00 0.00 60 1008.0
20260505093024 16 260 17.7 45.1 0.00 0.00 0.00 60 1008.0
20260505092942 16 223 20.9 45.1 0.00 0.00 0.00 60 1008.0
20260505092841 16 299 22.5 45.1 0.00 0.00 0.00 60 1008.1
20260505092724 16 258 19.3 41.8 0.00 0.00 0.00 60 1008.1
20260505092642 16 299 19.3 41.8 0.00 0.00 0.00 60 1008.1
20260505092540 16 298 22.5 41.8 0.00 0.00 0.00 60 1008.1
20260505092458 16 318 22.5 41.8 0.00 0.00 0.00 60 1008.1
20260505092336 16 193 14.5 41.8 0.00 0.00 0.00 60 1008.1